Home   Weather   Chicago   Past weeks
Flag for USA

Past Weather in Chicago, Illinois, USA — August 2015

Now
79 °F

Passing clouds.


Feels Like: 80 °F
Forecast: 79 / 74 °F
Wind: 7 mph from Southwest

Location: Chicago Midway Airport

Current Time: Jul 15, 2019 at 11:27:52 pm

Latest Report: Jul 15, 2019 at 10:53 pm


Visibility: 10 mi

Pressure: 29.96 "Hg

Humidity: 56%

Dew Point: 62 °F

Location of ChicagoLocation

August 2015 Weather in Chicago — Graph

°F

High & Low Weather Summary for August 2015

 TemperatureHumidityPressure
High94 °F (Aug 2, 1:53 pm)90% (Aug 30, 12:53 am)30.22 "Hg (Aug 30, 12:53 am)
Low57 °F (Aug 24, 5:53 am)26% (Aug 3, 4:53 pm)29.61 "Hg (Aug 19, 4:53 am)
Average74 °F63%29.96 "Hg
* Reported Aug 1 12:53 am — Aug 31 11:53 pm, Chicago. Weather by CustomWeather, © 2019

Note: Actual official high and low records may vary slightly from our data, if they occured in-between our weather recording intervals... More about our weather records

Advertising

Chicago Weather History for August 1, 2015

Scroll right to see more
 ConditionsComfort  
Time TempWeatherWind HumidityBarometerVisibility
12:53 am
Sat, Aug 1
72 °FClear.5 mph48%29.95 "Hg10 mi
1:53 am71 °FClear.7 mph49%29.95 "Hg10 mi
2:53 am70 °FClear.5 mph51%29.94 "Hg10 mi
3:53 am68 °FClear.6 mph57%29.95 "Hg10 mi
4:53 am68 °FClear.7 mph57%29.95 "Hg10 mi
5:53 am67 °FPassing clouds.6 mph59%29.96 "Hg10 mi
6:53 am69 °FPassing clouds.6 mph57%29.96 "Hg10 mi
7:53 am72 °FPassing clouds.6 mph53%29.96 "Hg10 mi
8:53 am77 °FPassing clouds.5 mph47%29.96 "Hg10 mi
9:53 am81 °FPassing clouds.8 mph41%29.95 "Hg10 mi
10:53 am83 °FScattered clouds.15 mph37%29.96 "Hg10 mi
11:53 am85 °FScattered clouds.9 mph35%29.95 "Hg10 mi
12:53 pm85 °FScattered clouds.13 mph32%29.94 "Hg10 mi
1:53 pm88 °FScattered clouds.13 mph31%29.91 "Hg10 mi
2:53 pm88 °FScattered clouds.15 mph30%29.89 "Hg10 mi
3:53 pm88 °FPartly sunny.15 mph33%29.89 "Hg10 mi
4:53 pm87 °FPartly sunny.15 mph36%29.88 "Hg10 mi
5:53 pm85 °FBroken clouds.13 mph42%29.87 "Hg10 mi
6:53 pm85 °FBroken clouds.14 mph42%29.86 "Hg10 mi
7:53 pm83 °FBroken clouds.15 mph48%29.86 "Hg10 mi
8:53 pm81 °FPartly sunny.8 mph51%29.87 "Hg10 mi
9:53 pm79 °FPassing clouds.8 mph56%29.87 "Hg10 mi
10:53 pm78 °FPassing clouds.10 mph60%29.86 "Hg10 mi
11:53 pm77 °FClear.10 mph64%29.86 "Hg10 mi
Weather by CustomWeather, © 2019

See weather overview

LIVE PARTIAL LUNAR ECLIPSE – Watch the eclipse as it happens